���t,����,�O�C���x,�����t���O,�O�C���Ύ��x,�����t���O,���ԉ��x,�����t���O,���ԑ��Ύ��x,�����t���O,�g�C������,�����t���O,�L�b�`�����x,�����t���O,��󒲎����x,�����t���O
2005/2/1,0:00,4.3,0,63,0,24.4,0,33.2,0,11.9,0,23.3,0,18.9,0
2005/2/1,0:15,4.8,0,58,0,23.9,0,33.5,0,11.9,0,22.9,0,18.2,0
2005/2/1,0:30,5,0,58,0,23.3,0,33.9,0,12,0,22.6,0,17.7,0
2005/2/1,0:45,5.1,0,53,0,22.8,0,33.8,0,11.3,0,22.2,0,17.2,0
2005/2/1,1:00,4.4,0,61,0,22.4,0,32.2,0,11.2,0,21.8,0,16.8,0
2005/2/1,1:15,1.8,0,78,0,22,0,32.7,0,11.2,0,21.5,0,16.4,0
2005/2/1,1:30,2.6,0,84,0,21.6,0,32.5,0,11.4,0,21.1,0,16,0
2005/2/1,1:45,2.9,0,71,0,21.2,0,32.8,0,11.5,0,20.8,0,15.7,0
2005/2/1,2:00,3.5,0,64,0,20.8,0,33,0,11.6,0,20.4,0,15.4,0
2005/2/1,2:15,2.7,0,62,0,20.4,0,33.1,0,11.7,0,20.1,0,15.1,0
2005/2/1,2:30,2.3,0,59,0,20.1,0,33,0,11.7,0,19.8,0,15,0
2005/2/1,2:45,2.6,0,54,0,19.8,0,32.9,0,10.7,0,19.5,0,14.8,0
2005/2/1,3:00,2.5,0,50,0,19.5,0,32.8,0,10.8,0,19.3,0,14.6,0
2005/2/1,3:15,2.5,0,48,0,19.2,0,32.8,0,10.9,0,19,0,14.4,0
2005/2/1,3:30,2.4,0,50,0,18.9,0,32.7,0,11,0,18.8,0,14.2,0
2005/2/1,3:45,2.1,0,47,0,18.6,0,32.4,0,10.4,0,18.5,0,14,0
2005/2/1,4:00,1.7,0,44,0,18.3,0,32.4,0,10.5,0,18.2,0,13.9,0
2005/2/1,4:15,1.6,0,54,0,18.1,0,32.2,0,10.6,0,18,0,13.7,0
2005/2/1,4:30,1.2,0,60,0,17.9,0,32.5,0,10.7,0,17.8,0,13.6,0
2005/2/1,4:45,1.3,0,56,0,17.6,0,32.9,0,10.7,0,17.5,0,13.4,0
2005/2/1,5:00,1.4,0,45,0,17.4,0,32.9,0,10.8,0,17.3,0,13.3,0
2005/2/1,5:15,1.4,0,47,0,17.1,0,33,0,10.9,0,17.1,0,13.1,0
2005/2/1,5:30,1.4,0,47,0,16.9,0,33,0,10.1,0,16.9,0,13,0
2005/2/1,5:45,1.5,0,52,0,16.7,0,33.1,0,10.2,0,16.7,0,12.8,0
2005/2/1,6:00,1.4,0,52,0,17.5,0,32.1,0,10.3,0,16.5,0,12.7,0
2005/2/1,6:15,1.4,0,50,0,21.9,0,26.9,0,11.3,0,17.2,0,12.4,0
2005/2/1,6:30,1.4,0,54,0,25.9,0,22.3,0,11.3,0,18.3,0,12.1,0
2005/2/1,6:45,1.2,0,60,0,28.7,0,19.8,0,11.4,0,19.9,0,11.9,0
2005/2/1,7:00,1.3,0,54,0,29.5,0,17.9,0,11.4,0,21.2,0,11.6,0
2005/2/1,7:15,1.3,0,52,0,30.6,0,17.6,0,11.5,0,22.1,0,11.4,0
2005/2/1,7:30,1.3,0,48,0,29.1,0,19.9,0,12.1,0,22.2,0,11.3,0
2005/2/1,7:45,1.2,0,49,0,28.3,0,28.1,0,12.3,0,21.6,0,11.1,0
2005/2/1,8:00,1.4,0,49,0,28.5,0,31.3,0,12.3,0,21.4,0,11,0
2005/2/1,8:15,0.8,0,63,0,29.1,0,26.6,0,12.4,0,21.6,0,10.8,0
2005/2/1,8:30,0.9,0,59,0,29.3,0,25.9,0,12.4,0,21.8,0,10.7,0
2005/2/1,8:45,0.8,0,62,0,28.7,0,27.4,0,12.1,0,21.9,0,10.6,0
2005/2/1,9:00,0.8,0,62,0,28.3,0,27.9,0,12.1,0,22,0,10.5,0
2005/2/1,9:15,1.2,0,56,0,28.9,0,26.5,0,12.2,0,22,0,10.5,0
2005/2/1,9:30,1.1,0,56,0,28.7,0,26.1,0,12.2,0,21.5,0,10.4,0
2005/2/1,9:45,-0.3,0,77,0,28.7,0,24.8,0,12.2,0,22,0,10.3,0
2005/2/1,10:00,-0.8,0,84,0,28.8,0,25.5,0,12.2,0,22.1,0,10.2,0
2005/2/1,10:15,0.4,0,58,0,29.1,0,24.8,0,11.4,0,22.6,0,10.2,0
2005/2/1,10:30,0.7,0,50,0,27.9,0,31.4,0,11.6,0,22.6,0,10.2,0
2005/2/1,10:45,0.7,0,55,0,28.7,0,31.9,0,11.6,0,22.6,0,10.3,0
2005/2/1,11:00,1,0,50,0,28,0,28.8,0,11.7,0,22.7,0,10.3,0
2005/2/1,11:15,1.2,0,47,0,28.1,0,28,0,11.7,0,22.7,0,10.5,0
2005/2/1,11:30,1.1,0,51,0,28.4,0,27.9,0,11.8,0,22.8,0,10.5,0
2005/2/1,11:45,0.8,0,49,0,28.6,0,28.4,0,10.1,0,22.9,0,10.5,0
2005/2/1,12:00,1,0,49,0,28.2,0,28.7,0,10.2,0,23,0,10.5,0
2005/2/1,12:15,1,0,50,0,28,0,27.6,0,11.5,0,23,0,10.4,0
2005/2/1,12:30,1,0,50,0,26.1,0,25.1,0,11.5,0,22.8,0,10.5,0
2005/2/1,12:45,1,0,47,0,24.1,0,28.1,0,11.5,0,22.1,0,10.5,0
2005/2/1,13:00,0.8,0,48,0,23.2,0,29.1,0,11.6,0,21.6,0,10.4,0
2005/2/1,13:15,1,0,46,0,22.4,0,30,0,11.6,0,21.1,0,10.3,0
2005/2/1,13:30,0.7,0,46,0,21.4,0,28,0,11.7,0,20.3,0,10.2,0
2005/2/1,13:45,0.7,0,44,0,26.4,0,20.6,0,10.7,0,19.9,0,10.2,0
2005/2/1,14:00,0.7,0,42,0,27.7,0,21.4,0,10.8,0,21.1,0,10.2,0
2005/2/1,14:15,0.3,0,53,0,27.6,0,21.2,0,10.9,0,21.4,0,10.2,0
2005/2/1,14:30,0,0,58,0,28.1,0,20.5,0,12,0,21.8,0,10.1,0
2005/2/1,14:45,0,0,57,0,28.3,0,19.9,0,12,0,22.1,0,10.1,0
2005/2/1,15:00,0,0,59,0,27.8,0,19.3,0,11,0,22.1,0,10,0
2005/2/1,15:15,-0.1,0,55,0,28.6,0,18.5,0,11.1,0,22.2,0,10.1,0
2005/2/1,15:30,0.5,0,49,0,28.2,0,18.5,0,11.1,0,22.2,0,10.1,0
2005/2/1,15:45,0.4,0,44,0,28.4,0,17.9,0,11.2,0,22.3,0,10.1,0
2005/2/1,16:00,0.4,0,55,0,28.4,0,18.5,0,11.1,0,22.6,0,10.1,0
2005/2/1,16:15,0,0,63,0,25,0,23.2,0,12.5,0,22.3,0,10.1,0
2005/2/1,16:30,0.3,0,57,0,24.2,0,34.1,0,12.5,0,21.9,0,10.1,0
2005/2/1,16:45,0.3,0,57,0,23.5,0,39.4,0,12.5,0,21.6,0,10.1,0
2005/2/1,17:00,0.3,0,58,0,23,0,46.8,0,12.5,0,21.5,0,10,0
2005/2/1,17:15,0.7,0,53,0,22.1,0,38.1,0,12.6,0,20.8,0,10,0
2005/2/1,17:30,0.8,0,54,0,21.6,0,34.9,0,12.2,0,20.4,0,10,0
2005/2/1,17:45,0.5,0,57,0,21.3,0,36.9,0,12.2,0,20.1,0,10,0
2005/2/1,18:00,0.7,0,53,0,28.2,0,27.6,0,12.3,0,20.7,0,9.9,0
2005/2/1,18:15,0.6,0,52,0,27.1,0,24.8,0,12.1,0,21.5,0,10,0
2005/2/1,18:30,0.6,0,54,0,28.2,0,26.3,0,12,0,22.1,0,9.9,0
2005/2/1,18:45,0.7,0,56,0,28.7,0,26.4,0,12,0,22.6,0,9.9,0
2005/2/1,19:00,0.7,0,58,0,27.2,0,29.3,0,12,0,22.7,0,9.8,0
2005/2/1,19:15,0.5,0,58,0,27.4,0,28.5,0,12.3,0,22.7,0,9.7,0
2005/2/1,19:30,0.9,0,49,0,28,0,28.2,0,12.3,0,22.9,0,9.7,0
2005/2/1,19:45,0.6,0,53,0,27.8,0,27.2,0,12.3,0,23.1,0,9.6,0
2005/2/1,20:00,0.9,0,55,0,27.9,0,27.2,0,12.6,0,23.1,0,9.6,0
2005/2/1,20:15,1,0,52,0,28.1,0,27.3,0,12.7,0,23.3,0,9.6,0
2005/2/1,20:30,1,0,47,0,28.4,0,27.9,0,12.7,0,23.6,0,9.5,0
2005/2/1,20:45,0.9,0,46,0,28.6,0,28.4,0,11.4,0,23.8,0,9.5,0
2005/2/1,21:00,0.8,0,46,0,28.2,0,30.2,0,11.4,0,24,0,9.5,0
2005/2/1,21:15,0.8,0,52,0,27.8,0,29,0,11.5,0,23.9,0,9.6,0
2005/2/1,21:30,0.5,0,57,0,27.7,0,27.8,0,11,0,24.1,0,9.6,0
2005/2/1,21:45,0.7,0,55,0,27.6,0,25.4,0,11,0,24.1,0,9.6,0
2005/2/1,22:00,0.8,0,55,0,27.6,0,23.2,0,10.6,0,24,0,9.6,0
2005/2/1,22:15,0.7,0,56,0,27.4,0,22.2,0,10.6,0,23.9,0,9.6,0
2005/2/1,22:30,0.8,0,53,0,27.4,0,21.4,0,10.6,0,23.9,0,9.5,0
2005/2/1,22:45,0.7,0,60,0,27.3,0,21,0,10.7,0,23.8,0,9.5,0
2005/2/1,23:00,1,0,47,0,27.6,0,20,0,9.8,0,23.8,0,9.6,0
2005/2/1,23:15,0.9,0,44,0,25.4,0,21.7,0,10.8,0,23.6,0,9.6,0
2005/2/1,23:30,1.1,0,45,0,24.1,0,22.1,0,10.8,0,22.8,0,9.5,0
2005/2/1,23:45,1,0,43,0,23.3,0,22.1,0,10.9,0,22.2,0,9.5,0
2005/2/2,0:00,1,0,46,0,22.7,0,22.2,0,11,0,21.6,0,9.5,0
2005/2/2,0:15,1.1,0,48,0,22,0,22.5,0,11,0,21,0,9.4,0
2005/2/2,0:30,1.2,0,48,0,21.4,0,22.9,0,11.1,0,20.5,0,9.4,0
2005/2/2,0:45,1.1,0,48,0,20.8,0,23,0,9.7,0,19.9,0,9.4,0
2005/2/2,1:00,1.1,0,46,0,20.2,0,23.4,0,9.9,0,19.5,0,9.4,0
2005/2/2,1:15,1.1,0,45,0,19.8,0,23.7,0,9.9,0,19.1,0,9.4,0
2005/2/2,1:30,1,0,45,0,19.4,0,24,0,10,0,18.8,0,9.3,0
2005/2/2,1:45,1.2,0,46,0,18.9,0,24.3,0,10,0,18.4,0,9.2,0
2005/2/2,2:00,0.9,0,45,0,18.5,0,24.6,0,10.1,0,18.1,0,9.2,0
2005/2/2,2:15,0.9,0,44,0,18.2,0,24.9,0,10.2,0,17.7,0,9.2,0
2005/2/2,2:30,1,0,44,0,17.8,0,25.2,0,10.3,0,17.4,0,9.1,0
2005/2/2,2:45,1.1,0,46,0,17.5,0,26,0,10.4,0,17.2,0,9,0
2005/2/2,3:00,1.2,0,47,0,17.3,0,27.2,0,10.4,0,17,0,9,0
2005/2/2,3:15,1.2,0,47,0,17,0,27.9,0,10.5,0,16.8,0,8.9,0
2005/2/2,3:30,1.2,0,49,0,16.8,0,28.6,0,10.6,0,16.7,0,8.9,0
2005/2/2,3:45,1.2,0,49,0,16.6,0,29.3,0,10.6,0,16.5,0,8.9,0
2005/2/2,4:00,1.3,0,48,0,16.4,0,29.8,0,10.7,0,16.3,0,8.9,0
2005/2/2,4:15,1.3,0,50,0,16.2,0,30.4,0,10.8,0,16.1,0,8.9,0
2005/2/2,4:30,1.3,0,54,0,16,0,30.9,0,10.9,0,15.9,0,8.9,0
2005/2/2,4:45,1.3,0,55,0,15.8,0,31.3,0,10.9,0,15.8,0,8.9,0
2005/2/2,5:00,1.2,0,55,0,15.6,0,31.6,0,11,0,15.6,0,8.9,0
2005/2/2,5:15,1.4,0,56,0,15.4,0,32.2,0,11.1,0,15.4,0,8.8,0
2005/2/2,5:30,1.5,0,56,0,15.2,0,32.5,0,11.2,0,15.2,0,8.8,0
2005/2/2,5:45,1.6,0,55,0,15,0,32.7,0,11.2,0,15.1,0,8.8,0
2005/2/2,6:00,1.6,0,55,0,15.1,0,33.1,0,10.6,0,14.9,0,8.9,0
2005/2/2,6:15,1.7,0,53,0,24.8,0,22.5,0,11,0,16.1,0,8.8,0
2005/2/2,6:30,1.6,0,54,0,27.2,0,19.5,0,11.1,0,17.7,0,8.7,0
2005/2/2,6:45,1.7,0,56,0,28.4,0,18.8,0,11.1,0,18.9,0,8.6,0
2005/2/2,7:00,1.6,0,56,0,29.8,0,17.6,0,11.2,0,20.7,0,8.5,0
2005/2/2,7:15,1.7,0,54,0,28.4,0,18.7,0,12.7,0,21.6,0,8.5,0
2005/2/2,7:30,1.7,0,51,0,28.1,0,22.9,0,12.8,0,21.5,0,8.4,0
2005/2/2,7:45,1.8,0,52,0,28.3,0,29.5,0,13,0,21.6,0,8.4,0
2005/2/2,8:00,1.7,0,55,0,23.4,0,46.2,0,13,0,20.8,0,8.4,0
2005/2/2,8:15,1.7,0,56,0,22,0,46.5,0,13,0,19.9,0,8.5,0
2005/2/2,8:30,1.9,0,58,0,27.8,0,41.3,0,12.6,0,20.6,0,8.6,0
2005/2/2,8:45,2.4,0,55,0,28.1,0,45.2,0,12.7,0,21.5,0,8.6,0
2005/2/2,9:00,2.1,0,56,0,26.9,0,49.8,0,12.7,0,21.7,0,8.6,0
2005/2/2,9:15,1.6,0,65,0,26.3,0,38.6,0,12.7,0,21.6,0,8.7,0
2005/2/2,9:30,1.3,0,72,0,27.1,0,32.5,0,12.8,0,20.2,0,9,0
2005/2/2,9:45,1.7,0,68,0,27.8,0,30.7,0,12.8,0,19.6,0,9.5,0
2005/2/2,10:00,2.7,0,65,0,27.8,0,36.3,0,12.9,0,20.7,0,9.9,0
2005/2/2,10:15,2.5,0,65,0,28.5,0,35.7,0,11.3,0,20.8,0,10.2,0
2005/2/2,10:30,2.2,0,65,0,28.6,0,43.1,0,11.3,0,21.6,0,10.2,0
2005/2/2,10:45,2.6,0,65,0,28.4,0,45.5,0,11.4,0,22,0,10.1,0
2005/2/2,11:00,2.7,0,68,0,28.3,0,47.8,0,10.2,0,22.3,0,10.1,0
2005/2/2,11:15,2.6,0,70,0,27.5,0,35.6,0,12.1,0,22.5,0,10,0
2005/2/2,11:30,2.4,0,75,0,28.4,0,29.5,0,12.1,0,22.4,0,9.9,0
2005/2/2,11:45,2.3,0,74,0,28.2,0,27.3,0,12.1,0,21.6,0,9.8,0
2005/2/2,12:00,1.8,0,79,0,23.9,0,36.8,0,12.2,0,21.5,0,9.8,0
2005/2/2,12:15,2.3,0,80,0,22.9,0,41.3,0,12.3,0,21.1,0,9.7,0
2005/2/2,12:30,3,0,75,0,22.2,0,44.2,0,10.3,0,20.7,0,9.7,0
2005/2/2,12:45,2.4,0,76,0,21.6,0,46.2,0,10.3,0,20.4,0,9.7,0
2005/2/2,13:00,1.8,0,81,0,21,0,46.3,0,10,0,20,0,9.7,0
2005/2/2,13:15,1.9,0,86,0,20.5,0,47.7,0,10,0,19.7,0,9.6,0
2005/2/2,13:30,1.6,0,86,0,20.1,0,48.7,0,10.1,0,19.5,0,9.6,0
2005/2/2,13:45,1.6,0,86,0,19.8,0,49.4,0,10.2,0,19.2,0,9.6,0
2005/2/2,14:00,1.6,0,86,0,19.4,0,49.8,0,10.3,0,19,0,9.5,0
2005/2/2,14:15,2.5,0,87,0,19.3,0,49.6,0,10.4,0,18.8,0,9.5,0
2005/2/2,14:30,2.7,0,84,0,19.1,0,50,0,10.5,0,18.6,0,9.5,0
2005/2/2,14:45,3.5,0,71,0,18.8,0,50.3,0,9.5,0,18.4,0,9.5,0
2005/2/2,15:00,3.5,0,64,0,18.7,0,49.8,0,9.6,0,18.2,0,9.5,0
2005/2/2,15:15,3.6,0,63,0,18.5,0,49.5,0,9.7,0,18,0,9.4,0
2005/2/2,15:30,3.5,0,64,0,18.3,0,49.2,0,9.7,0,17.8,0,9.4,0
2005/2/2,15:45,3,0,67,0,18.1,0,49,0,9.8,0,17.6,0,9.4,0
2005/2/2,16:00,3.1,0,70,0,17.8,0,47.5,0,9.9,0,17.4,0,9.4,0
2005/2/2,16:15,3.3,0,65,0,17.7,0,47,0,10,0,17.2,0,9.5,0
2005/2/2,16:30,3.4,0,64,0,25.3,0,31.3,0,9.3,0,17.5,0,9.6,0
2005/2/2,16:45,2.7,0,70,0,27.9,0,29.7,0,9.3,0,19.1,0,9.6,0
2005/2/2,17:00,2.7,0,74,0,26.7,0,33.7,0,9.4,0,19.6,0,9.6,0
2005/2/2,17:15,3.2,0,69,0,27.7,0,32.9,0,9.5,0,20.1,0,9.6,0
2005/2/2,17:30,3.6,0,64,0,28.2,0,32.8,0,9.6,0,20.8,0,9.6,0
2005/2/2,17:45,3.6,0,65,0,28.3,0,32.2,0,9.6,0,21.4,0,9.6,0
2005/2/2,18:00,3.7,0,61,0,28.4,0,33.5,0,11.6,0,21.8,0,9.6,0
2005/2/2,18:15,3.7,0,63,0,26.3,0,31.2,0,11.4,0,22,0,9.6,0
2005/2/2,18:30,3.8,0,59,0,24.7,0,33,0,11.5,0,21.5,0,10.9,0
2005/2/2,18:45,3.9,0,60,0,26.8,0,24.8,0,11.5,0,21.9,0,11.8,0
2005/2/2,19:00,3.8,0,59,0,23.8,0,28.8,0,11.6,0,21.4,0,12,0
2005/2/2,19:15,4,0,58,0,22.7,0,31.9,0,11.7,0,20.9,0,12.2,0
2005/2/2,19:30,3.9,0,57,0,26.6,0,24.8,0,12.1,0,20.7,0,12.4,0
2005/2/2,19:45,3.9,0,56,0,22.8,0,29.3,0,12.5,0,20.9,0,12.6,0
2005/2/2,20:00,3.9,0,57,0,21.6,0,30.5,0,12.6,0,20,0,12.8,0
2005/2/2,20:15,3.9,0,55,0,26.2,0,24.3,0,12.6,0,19.9,0,13.8,0
2005/2/2,20:30,3.8,0,55,0,27.9,0,23.6,0,12.7,0,21.7,0,14.6,0
2005/2/2,20:45,3.8,0,53,0,28,0,24.4,0,12.7,0,21.8,0,15.4,0
2005/2/2,21:00,3.9,0,51,0,28.6,0,24.7,0,12.8,0,22.2,0,16.2,0
2005/2/2,21:15,4.1,0,50,0,28.9,0,23.8,0,12.8,0,22.5,0,16.8,0
2005/2/2,21:30,4,0,52,0,26.3,0,27.7,0,12.9,0,22.7,0,17.4,0
2005/2/2,21:45,4,0,50,0,24.3,0,29.8,0,11.3,0,22.2,0,17.9,0
2005/2/2,22:00,3.9,0,51,0,29.1,0,22.4,0,11.4,0,22.4,0,18.3,0
2005/2/2,22:15,4,0,50,0,26.6,0,24.7,0,11.5,0,23,0,18.5,0
2005/2/2,22:30,3.9,0,52,0,27.6,0,23.7,0,10.5,0,23.2,0,18.4,0
2005/2/2,22:45,3.8,0,53,0,28.1,0,23.8,0,10.3,0,23.2,0,17.8,0
2005/2/2,23:00,3.8,0,49,0,28.4,0,23.9,0,10.4,0,23.4,0,17.6,0
2005/2/2,23:15,3.7,0,54,0,28.7,0,23.7,0,9.9,0,23.7,0,17.8,0
2005/2/2,23:30,3.7,0,52,0,27.6,0,24.4,0,10,0,23.8,0,18,0
2005/2/2,23:45,3.6,0,56,0,27.5,0,23.6,0,10.1,0,23.6,0,18.2,0
2005/2/3,0:00,3.3,0,58,0,28.2,0,22.3,0,10.2,0,24,0,18.2,0
2005/2/3,0:15,3.2,0,59,0,28.2,0,23.8,0,10.3,0,23.9,0,17.4,0
2005/2/3,0:30,3.3,0,58,0,28.4,0,24,0,10.4,0,23.9,0,16.7,0
2005/2/3,0:45,3.2,0,54,0,28.4,0,23.8,0,10.5,0,23.9,0,16.2,0
2005/2/3,1:00,3.3,0,55,0,28.4,0,23.1,0,10.6,0,24,0,15.7,0
2005/2/3,1:15,3.3,0,57,0,28.6,0,22.4,0,10.6,0,24,0,15.3,0
2005/2/3,1:30,3.3,0,56,0,28.8,0,22,0,10.8,0,24.1,0,14.9,0
2005/2/3,1:45,3.2,0,57,0,28.7,0,23,0,10.8,0,24.2,0,14.6,0
2005/2/3,2:00,3.1,0,55,0,28.2,0,23.9,0,11,0,24.2,0,14.3,0
2005/2/3,2:15,3.2,0,51,0,28.1,0,24.2,0,11.1,0,24.2,0,14.1,0
2005/2/3,2:30,3.1,0,54,0,28.3,0,24.3,0,11.1,0,24.2,0,13.9,0
2005/2/3,2:45,3.1,0,58,0,28.3,0,24.4,0,11.2,0,24.3,0,13.7,0
2005/2/3,3:00,2.9,0,63,0,28.2,0,24.6,0,11.3,0,24.3,0,13.6,0
2005/2/3,3:15,3,0,53,0,28.2,0,24.6,0,11.4,0,24.4,0,13.4,0
2005/2/3,3:30,2.9,0,49,0,28.3,0,24.5,0,11.5,0,24.4,0,13.3,0
2005/2/3,3:45,2.9,0,53,0,26.5,0,27,0,11.6,0,24.4,0,13.2,0
2005/2/3,4:00,2.9,0,56,0,25.1,0,28.8,0,11.7,0,23.9,0,13.1,0
2005/2/3,4:15,3,0,54,0,24.4,0,29.5,0,11.8,0,23.5,0,12.9,0
2005/2/3,4:30,3.1,0,52,0,23.9,0,30,0,11.9,0,23,0,12.8,0
2005/2/3,4:45,3.1,0,50,0,23.4,0,30.1,0,9.9,0,22.6,0,12.7,0
2005/2/3,5:00,3.2,0,52,0,22.9,0,30.6,0,10,0,22.3,0,12.6,0
2005/2/3,5:15,3.2,0,52,0,22.4,0,31.1,0,10.2,0,21.9,0,12.5,0
2005/2/3,5:30,3.3,0,51,0,22,0,31.8,0,10.2,0,21.5,0,12.4,0
2005/2/3,5:45,3.3,0,50,0,21.6,0,32.1,0,10.3,0,21.2,0,12.3,0
2005/2/3,6:00,3.3,0,53,0,21.2,0,32.1,0,10.4,0,20.8,0,12.2,0
2005/2/3,6:15,3.2,0,54,0,20.8,0,32.3,0,10.5,0,20.5,0,12.2,0
2005/2/3,6:30,3.3,0,55,0,28.9,0,21.2,0,11.2,0,21.3,0,12,0
2005/2/3,6:45,3.4,0,56,0,26.5,0,25.4,0,11.2,0,22.8,0,11.8,0
2005/2/3,7:00,3.4,0,57,0,27.4,0,24.7,0,11.3,0,23,0,11.6,0
2005/2/3,7:15,3.5,0,53,0,28.3,0,23.7,0,11.3,0,23.3,0,11.4,0
2005/2/3,7:30,3.5,0,54,0,28.7,0,25,0,12.2,0,23.8,0,11.3,0
2005/2/3,7:45,3.6,0,54,0,28.2,0,25.9,0,12.3,0,23.9,0,11.2,0
2005/2/3,8:00,3.7,0,55,0,28.2,0,25.4,0,12.3,0,23.9,0,11.1,0
2005/2/3,8:15,3.7,0,57,0,28.4,0,25.3,0,12.4,0,24.1,0,11,0
2005/2/3,8:30,3.7,0,58,0,27.9,0,24,0,12.2,0,24.1,0,10.9,0
2005/2/3,8:45,4.2,0,57,0,23.8,0,26.6,0,12.2,0,22,0,11.1,0
2005/2/3,9:00,4.1,0,53,0,23,0,32,0,12.3,0,21.1,0,11.1,0
2005/2/3,9:15,4.3,0,52,0,21.6,0,36.7,0,12.4,0,20.4,0,11.1,0
2005/2/3,9:30,4.2,0,51,0,21.2,0,33.9,0,11.5,0,20,0,11,0
2005/2/3,9:45,4.5,0,51,0,20.9,0,44.2,0,11.6,0,19.8,0,10.9,0
2005/2/3,10:00,5.2,0,48,0,20.5,0,48.7,0,11.7,0,19.6,0,10.9,0
2005/2/3,10:15,5,0,48,0,20.1,0,47.6,0,11.8,0,19.3,0,10.9,0
2005/2/3,10:30,5.4,0,48,0,23.9,0,38.8,0,11.9,0,19.2,0,10.9,0
2005/2/3,10:45,5.7,0,48,0,27.7,0,35.3,0,11.9,0,21,0,10.8,0
2005/2/3,11:00,6.1,0,48,0,27,0,37.6,0,12,0,21.2,0,10.7,0
2005/2/3,11:15,6.1,0,47,0,27.5,0,33.5,0,12.1,0,21.5,0,10.8,0
2005/2/3,11:30,6,0,48,0,28,0,33.4,0,12.1,0,22.1,0,10.7,0
2005/2/3,11:45,6.6,0,49,0,28.3,0,36.4,0,12.2,0,22.5,0,10.7,0
2005/2/3,12:00,6.5,0,49,0,26.6,0,40.8,0,12.3,0,22.8,0,10.7,0
2005/2/3,12:15,6.2,0,49,0,26.9,0,39.9,0,10.3,0,22.8,0,10.7,0
2005/2/3,12:30,7.2,0,48,0,27,0,41,0,10.1,0,22.9,0,10.7,0
2005/2/3,12:45,6.6,0,48,0,26.9,0,33.8,0,10.5,0,23.1,0,10.7,0
2005/2/3,13:00,6.8,0,47,0,27,0,28.1,0,10.5,0,22.9,0,10.6,0
2005/2/3,13:15,6.9,0,46,0,28.3,0,29.1,0,10.6,0,23.2,0,10.7,0
2005/2/3,13:30,7.2,0,45,0,28.2,0,29.1,0,10.7,0,23.6,0,10.7,0
2005/2/3,13:45,7.2,0,46,0,27.9,0,28.8,0,10.8,0,23.7,0,10.7,0
2005/2/3,14:00,6.9,0,47,0,27.5,0,27.7,0,10.9,0,23.6,0,10.8,0
2005/2/3,14:15,7.2,0,48,0,27.5,0,26.6,0,11,0,23.5,0,10.8,0
2005/2/3,14:30,7.3,0,48,0,27.6,0,25.7,0,11.1,0,23.5,0,10.8,0
2005/2/3,14:45,7.2,0,49,0,27.6,0,25,0,11.2,0,23.6,0,10.9,0
2005/2/3,15:00,7.2,0,49,0,27.7,0,24.4,0,11.2,0,23.6,0,10.9,0
2005/2/3,15:15,8.1,0,47,0,27.6,0,23.9,0,11.4,0,23.6,0,10.9,0
2005/2/3,15:30,8.4,0,45,0,27.7,0,23.4,0,11.5,0,23.6,0,11,0
2005/2/3,15:45,8.2,0,44,0,27.8,0,23,0,11.6,0,23.7,0,11,0
2005/2/3,16:00,8.3,0,44,0,27.9,0,23.2,0,10.1,0,23.8,0,11.1,0
2005/2/3,16:15,7.2,0,47,0,27.9,0,23.1,0,10.2,0,23.8,0,11.2,0
2005/2/3,16:30,6.9,0,51,0,27.7,0,23.1,0,10.3,0,23.8,0,11.2,0
2005/2/3,16:45,6.5,0,52,0,26.1,0,24.7,0,9.8,0,23.8,0,11.3,0
2005/2/3,17:00,6.3,0,53,0,24.6,0,26.1,0,9.9,0,23.2,0,11.4,0
2005/2/3,17:15,6.3,0,54,0,23.8,0,25.3,0,11.7,0,22.4,0,11.5,0
2005/2/3,17:30,6.2,0,55,0,22.6,0,27,0,12,0,21,0,11.6,0
2005/2/3,17:45,6.2,0,53,0,22.6,0,31.1,0,11.5,0,21,0,11.7,0
2005/2/3,18:00,5.8,0,54,0,22,0,30.6,0,11.5,0,20.7,0,11.7,0
2005/2/3,18:15,5.8,0,55,0,21.8,0,31.2,0,10.4,0,20.6,0,11.7,0
2005/2/3,18:30,5.6,0,57,0,21.5,0,32.2,0,11.4,0,20.5,0,11.6,0
2005/2/3,18:45,5.4,0,59,0,21.3,0,32.8,0,11.5,0,20.4,0,11.6,0
2005/2/3,19:00,5.3,0,60,0,21.2,0,33.3,0,11.6,0,20.3,0,11.6,0
2005/2/3,19:15,5.1,0,59,0,20.8,0,33.7,0,11.4,0,20,0,11.6,0
2005/2/3,19:30,4.9,0,59,0,20.2,0,30.9,0,11.5,0,19.4,0,11.6,0
2005/2/3,19:45,4.8,0,60,0,20.2,0,32.3,0,10.9,0,19.3,0,11.6,0
2005/2/3,20:00,4.3,0,61,0,20,0,34.3,0,10.6,0,19.3,0,11.6,0
2005/2/3,20:15,4.3,0,63,0,20,0,36,0,10.6,0,19.2,0,11.5,0
2005/2/3,20:30,4.5,0,63,0,28.7,0,21.2,0,10.7,0,21,0,11.5,0
2005/2/3,20:45,4.3,0,63,0,27.3,0,22.3,0,10.8,0,22,0,11.4,0
2005/2/3,21:00,4.3,0,63,0,28,0,21.9,0,12.8,0,22.3,0,11.4,0
2005/2/3,21:15,4.3,0,64,0,28.7,0,21.7,0,12.9,0,22.6,0,11.3,0
2005/2/3,21:30,4.3,0,65,0,28.3,0,23.2,0,12.9,0,22.9,0,11.3,0
2005/2/3,21:45,4.3,0,69,0,28.7,0,23.4,0,13,0,23.6,0,11.2,0
2005/2/3,22:00,4.2,0,70,0,28.3,0,23.8,0,13.1,0,23.7,0,11.2,0
2005/2/3,22:15,4,0,71,0,28.3,0,23.4,0,13.1,0,23.7,0,11.2,0
2005/2/3,22:30,3.3,0,69,0,28.4,0,23.6,0,13.2,0,23.8,0,11.1,0
2005/2/3,22:45,3.4,0,68,0,28.6,0,23.3,0,13.3,0,24,0,11.1,0
2005/2/3,23:00,3.1,0,68,0,28.6,0,23.3,0,13.4,0,24.1,0,11,0
2005/2/3,23:15,3,0,71,0,28.6,0,25.5,0,13.4,0,24.4,0,11,0
2005/2/3,23:30,2.4,0,71,0,28.1,0,24.4,0,13.5,0,24.4,0,10.9,0
2005/2/3,23:45,2.3,0,70,0,28,0,24.3,0,13.6,0,24.3,0,10.9,0
2005/2/4,0:00,1.9,0,71,0,28.5,0,25.6,0,13.6,0,24.2,0,10.9,0
2005/2/4,0:15,1.9,0,72,0,26.5,0,27.2,0,13.7,0,24.2,0,10.9,0
2005/2/4,0:30,1.9,0,73,0,25.2,0,29.5,0,12.7,0,23.7,0,10.9,0
2005/2/4,0:45,1.5,0,74,0,24.6,0,31.8,0,12.8,0,23.4,0,10.9,0
2005/2/4,1:00,1.4,0,76,0,24.1,0,32.7,0,12.9,0,23.1,0,11,0
2005/2/4,1:15,1.4,0,76,0,23.6,0,33.5,0,13,0,22.7,0,11,0
2005/2/4,1:30,1.2,0,77,0,23.1,0,34,0,13,0,22.4,0,11,0
2005/2/4,1:45,1.5,0,76,0,22.7,0,34.5,0,13.1,0,22,0,11.1,0
2005/2/4,2:00,1.1,0,75,0,22.3,0,34.9,0,13.2,0,21.7,0,11.1,0
2005/2/4,2:15,1.5,0,76,0,21.9,0,35.3,0,13.2,0,21.4,0,11.2,0
2005/2/4,2:30,1.4,0,74,0,21.6,0,35.6,0,13.3,0,21.1,0,11.2,0
2005/2/4,2:45,1.5,0,74,0,21.2,0,35.9,0,13.4,0,20.8,0,11.2,0
2005/2/4,3:00,1.3,0,74,0,20.9,0,36.4,0,11.9,0,20.5,0,11.3,0
2005/2/4,3:15,1.6,0,76,0,20.5,0,36.7,0,10.8,0,20.3,0,11.3,0
2005/2/4,3:30,2,0,75,0,20.3,0,37,0,10.9,0,20,0,11.3,0
2005/2/4,3:45,2,0,75,0,20,0,37.3,0,11,0,19.8,0,11.3,0
2005/2/4,4:00,2.3,0,75,0,19.8,0,37.7,0,11.2,0,19.6,0,11.2,0
2005/2/4,4:15,2.5,0,75,0,19.5,0,37.8,0,11.2,0,19.4,0,11.2,0
2005/2/4,4:30,3.1,0,75,0,19.3,0,38.1,0,11.3,0,19.2,0,11.1,0
2005/2/4,4:45,2.8,0,75,0,19.1,0,38.2,0,11.4,0,19,0,11.1,0
2005/2/4,5:00,3.3,0,76,0,19,0,42.4,0,11.6,0,18.9,0,11.1,0
2005/2/4,5:15,3.7,0,76,0,18.8,0,43.6,0,11.7,0,18.7,0,11,0
2005/2/4,5:30,4.1,0,75,0,18.6,0,43.2,0,10.5,0,18.5,0,11,0
2005/2/4,5:45,4.4,0,74,0,18.5,0,42.1,0,10.6,0,18.4,0,11,0
2005/2/4,6:00,4.5,0,73,0,26.3,0,28.6,0,10.7,0,18.9,0,11,0
2005/2/4,6:15,4.6,0,73,0,28.4,0,25.3,0,10.8,0,21.4,0,11,0
2005/2/4,6:30,4.6,0,73,0,28.4,0,24.8,0,10.9,0,22.1,0,10.8,0
2005/2/4,6:45,5.3,0,74,0,29.3,0,24.4,0,11,0,22.9,0,10.7,0
2005/2/4,7:00,4.8,0,71,0,30.1,0,23.1,0,11.1,0,23.6,0,10.6,0
2005/2/4,7:15,4.7,0,73,0,29.6,0,24.2,0,11.2,0,23.9,0,10.5,0
2005/2/4,7:30,4.7,0,74,0,29.4,0,30.3,0,12.6,0,24.1,0,10.5,0
2005/2/4,7:45,4.1,0,76,0,29.5,0,32.8,0,12.7,0,24.1,0,10.5,0
2005/2/4,8:00,4.2,0,79,0,29.2,0,38.6,0,12.3,0,24.2,0,10.4,0
2005/2/4,8:15,4.3,0,81,0,29.4,0,38.4,0,12.4,0,24.2,0,10.4,0
2005/2/4,8:30,4.8,0,82,0,29.5,0,36.2,0,12.4,0,24.2,0,10.4,0
2005/2/4,8:45,5,0,82,0,28.8,0,29.8,0,12.5,0,23,0,10.7,0
2005/2/4,9:00,5.3,0,83,0,29.3,0,28.1,0,11.2,0,21.7,0,11.1,0
2005/2/4,9:15,5.4,0,82,0,29.9,0,30.3,0,11.3,0,23.2,0,11.3,0
2005/2/4,9:30,5.6,0,83,0,29.5,0,31.5,0,11.4,0,24,0,11.3,0
2005/2/4,9:45,5.6,0,82,0,29.9,0,30.6,0,11.5,0,24.3,0,11.3,0
2005/2/4,10:00,5.7,0,82,0,29.1,0,35.2,0,11.5,0,24.3,0,11.3,0
2005/2/4,10:15,5.8,0,81,0,28.5,0,38.1,0,11.7,0,24.2,0,11.3,0
2005/2/4,10:30,5.8,0,81,0,28.9,0,37.7,0,11.7,0,24.2,0,11.3,0
2005/2/4,10:45,6,0,80,0,29.2,0,37.7,0,11.8,0,24.3,0,11.3,0
2005/2/4,11:00,6.2,0,80,0,28,0,40.1,0,12.1,0,24.4,0,11.3,0
2005/2/4,11:15,6.3,0,80,0,26.1,0,43.4,0,12.2,0,24.1,0,11.4,0
2005/2/4,11:30,6.7,0,80,0,26.7,0,43.1,0,12.3,0,24.1,0,11.4,0
2005/2/4,11:45,7.7,0,80,0,26.7,0,43.1,0,12.3,0,24.1,0,11.4,0
2005/2/4,12:00,7.9,0,76,0,26.7,0,42.8,0,11.1,0,24,0,11.4,0
2005/2/4,12:15,8.2,0,74,0,26.8,0,41.9,0,11.2,0,24,0,11.4,0
2005/2/4,12:30,9.1,0,73,0,26.5,0,41.9,0,11.3,0,24,0,11.5,0
2005/2/4,12:45,9.2,0,68,0,24.9,0,46.3,0,10.9,0,23.8,0,11.5,0
2005/2/4,13:00,9.1,0,66,0,24.5,0,48.2,0,11,0,23.6,0,11.5,0
2005/2/4,13:15,9.1,0,66,0,24.2,0,49.1,0,10.7,0,23.5,0,11.6,0
2005/2/4,13:30,9.2,0,65,0,23.9,0,49.6,0,10.8,0,23.3,0,11.6,0
2005/2/4,13:45,9.4,0,64,0,23.7,0,49.3,0,10.9,0,23.1,0,11.6,0
2005/2/4,14:00,9.4,0,64,0,23.5,0,50.2,0,11,0,22.9,0,11.6,0
2005/2/4,14:15,9.3,0,64,0,23.3,0,50.7,0,11.1,0,22.8,0,11.6,0
2005/2/4,14:30,9.7,0,63,0,23.2,0,51.6,0,11.2,0,22.7,0,11.7,0
2005/2/4,14:45,9.8,0,62,0,23,0,51.4,0,11.4,0,22.5,0,11.7,0
2005/2/4,15:00,10.3,0,59,0,22.6,0,43.9,0,10.4,0,22.1,0,11.8,0
2005/2/4,15:15,10.4,0,58,0,22.4,0,43.9,0,10.5,0,21.9,0,11.9,0
2005/2/4,15:30,10.1,0,58,0,22.2,0,44.3,0,10.5,0,21.7,0,11.9,0
2005/2/4,15:45,10.4,0,55,0,22,0,40.7,0,10.6,0,21.5,0,12,0
2005/2/4,16:00,10.8,0,54,0,21.7,0,39.7,0,10.7,0,21.2,0,12.1,0
2005/2/4,16:15,10.8,0,53,0,21.6,0,41,0,10.8,0,21.1,0,12.2,0
2005/2/4,16:30,10.8,0,52,0,21.5,0,41.8,0,10.9,0,21,0,12.2,0
2005/2/4,16:45,10.6,0,52,0,21.4,0,42.5,0,11.4,0,20.9,0,12.3,0
2005/2/4,17:00,10.3,0,53,0,23.2,0,36.7,0,11.7,0,20.6,0,12.3,0
2005/2/4,17:15,10,0,55,0,24.5,0,32.3,0,11.8,0,21.9,0,12.3,0
2005/2/4,17:30,9.4,0,57,0,26.2,0,29.4,0,11.9,0,22.5,0,12.3,0
2005/2/4,17:45,8.7,0,58,0,26.4,0,28.7,0,12,0,22.5,0,12.3,0
2005/2/4,18:00,7.9,0,61,0,26.7,0,27.7,0,10.8,0,22.5,0,12.3,0
2005/2/4,18:15,7.2,0,65,0,27.1,0,26.8,0,10.9,0,22.6,0,12.3,0
2005/2/4,18:30,6.9,0,65,0,27.1,0,25.8,0,10.4,0,22.7,0,12.3,0
2005/2/4,18:45,6.5,0,66,0,25.8,0,27.3,0,10.5,0,22.6,0,13.6,0
2005/2/4,19:00,6.3,0,67,0,23.7,0,31.3,0,10.7,0,21.6,0,14.5,0
2005/2/4,19:15,5.7,0,68,0,23.2,0,32.6,0,10.8,0,21.4,0,15.4,0
2005/2/4,19:30,5.3,0,70,0,22.8,0,33.3,0,10.6,0,21.2,0,16.1,0
2005/2/4,19:45,5,0,72,0,22.5,0,34.7,0,10.9,0,21,0,16.7,0
2005/2/4,20:00,4.8,0,73,0,22,0,36.3,0,11,0,20.9,0,17.2,0
2005/2/4,20:15,4.7,0,74,0,21.7,0,36.4,0,12.1,0,20.6,0,18,0
2005/2/4,20:30,4.4,0,76,0,28.1,0,26.7,0,12.3,0,21,0,19.5,0
2005/2/4,20:45,4.3,0,76,0,27.3,0,28.1,0,12.3,0,22.3,0,20.6,0
2005/2/4,21:00,4.1,0,77,0,27.2,0,28.5,0,12.4,0,22.6,0,21.4,0
2005/2/4,21:15,3.7,0,78,0,27.1,0,28.9,0,11.2,0,22.8,0,22.1,0
2005/2/4,21:30,3.5,0,79,0,26.8,0,28.4,0,11.5,0,22.8,0,22.6,0
2005/2/4,21:45,4,0,81,0,27.5,0,27.3,0,11.6,0,23.4,0,23,0
2005/2/4,22:00,3.2,0,82,0,27.4,0,27.5,0,11.7,0,23.6,0,23.4,0
2005/2/4,22:15,3,0,83,0,27.4,0,27.2,0,11.3,0,23.7,0,23.6,0
2005/2/4,22:30,3.5,0,84,0,27.6,0,27.5,0,11.4,0,23.8,0,23.3,0
2005/2/4,22:45,2.7,0,85,0,27.4,0,27.9,0,11.5,0,23.9,0,23.3,0
2005/2/4,23:00,2.5,0,85,0,26.7,0,27.9,0,10.8,0,23.7,0,23.5,0
2005/2/4,23:15,2.3,0,85,0,27,0,28.7,0,11,0,23.6,0,23.6,0
2005/2/4,23:30,2.2,0,85,0,26.8,0,28.7,0,11.1,0,23.7,0,22,0
2005/2/4,23:45,1.8,0,85,0,26.6,0,28.1,0,10.8,0,23.6,0,20.8,0
2005/2/5,0:00,1.6,0,85,0,26.6,0,26.9,0,10.9,0,23.5,0,19.8,0
2005/2/5,0:15,1.5,0,85,0,26.5,0,26.3,0,11,0,23.4,0,19.1,0
2005/2/5,0:30,1.5,0,86,0,26.7,0,25.6,0,11.1,0,23.3,0,18.5,0
2005/2/5,0:45,1.4,0,86,0,27,0,25.1,0,10.5,0,23.5,0,18,0
2005/2/5,1:00,1.2,0,86,0,26.8,0,27.3,0,10.3,0,23.6,0,17.6,0
2005/2/5,1:15,1.2,0,86,0,24.2,0,30.6,0,11.3,0,22.9,0,17.2,0
2005/2/5,1:30,1,0,87,0,23.6,0,31.9,0,11.4,0,22.5,0,16.8,0
2005/2/5,1:45,1,0,87,0,23,0,32.7,0,11.5,0,22.1,0,16.5,0
2005/2/5,2:00,0.7,0,87,0,22.7,0,33.5,0,11.6,0,21.8,0,16.2,0
2005/2/5,2:15,0.8,0,87,0,22.2,0,34,0,11.7,0,21.5,0,15.9,0
2005/2/5,2:30,1.2,0,87,0,21.8,0,34.6,0,10.5,0,21.2,0,15.7,0
2005/2/5,2:45,0.9,0,87,0,21.5,0,35.2,0,10.6,0,20.9,0,15.4,0